owner,sensor,date,latitude,longitude,vertical_datum,wind_speed,wind_to_direction,wind_speed_of_gust,qcFlag 
WAVCIS,ioos:station:WAVCIS:CSI15:1,2011-12-01T00:00:00Z,28.8332,-90.8320,10.0,1.938,13.0,,'11111222,11111222,99999999' 
WAVCIS,ioos:station:WAVCIS:CSI15:1,2011-12-01T01:00:00Z,28.8332,-90.8320,10.0,1.782,32.0,,'11111222,11111222,99999999' 
WAVCIS,ioos:station:WAVCIS:CSI15:1,2011-12-01T02:00:00Z,28.8332,-90.8320,10.0,2.753,23.0,,'11111222,11111222,99999999' 
WAVCIS,ioos:station:WAVCIS:CSI15:1,2011-12-01T03:00:00Z,28.8332,-90.8320,10.0,3.699,26.0,,'11111222,11111222,99999999' 
WAVCIS,ioos:station:WAVCIS:CSI15:1,2011-12-01T04:00:00Z,28.8332,-90.8320,10.0,3.958,31.0,,'11111222,11111222,99999999' 
WAVCIS,ioos:station:WAVCIS:CSI15:1,2011-12-01T05:00:00Z,28.8332,-90.8320,10.0,4.587,26.0,,'11111222,11111222,99999999' 
WAVCIS,ioos:station:WAVCIS:CSI15:1,2011-12-01T06:00:00Z,28.8332,-90.8320,10.0,4.956,33.0,,'11111222,11111222,99999999' 
WAVCIS,ioos:station:WAVCIS:CSI15:1,2011-12-01T07:00:00Z,28.8332,-90.8320,10.0,4.608,44.0,,'11111222,11111222,99999999' 
WAVCIS,ioos:station:WAVCIS:CSI15:1,2011-12-01T08:00:00Z,28.8332,-90.8320,10.0,4.41,40.0,,'11111222,11111222,99999999' 
WAVCIS,ioos:station:WAVCIS:CSI15:1,2011-12-01T09:00:00Z,28.8332,-90.8320,10.0,5.044,37.0,,'11111222,11111222,99999999' 
WAVCIS,ioos:station:WAVCIS:CSI15:1,2011-12-01T10:00:00Z,28.8332,-90.8320,10.0,5.188,34.0,,'11111222,11111222,99999999' 
WAVCIS,ioos:station:WAVCIS:CSI15:1,2011-12-01T11:00:00Z,28.8332,-90.8320,10.0,5.774,53.0,,'11111222,11111222,99999999' 
WAVCIS,ioos:station:WAVCIS:CSI15:1,2011-12-01T12:00:00Z,28.8332,-90.8320,10.0,6.098,50.0,,'11111222,11111222,99999999' 
WAVCIS,ioos:station:WAVCIS:CSI15:1,2011-12-01T13:00:00Z,28.8332,-90.8320,10.0,6.001,62.0,,'11111222,11111222,99999999' 
WAVCIS,ioos:station:WAVCIS:CSI15:1,2011-12-01T14:00:00Z,28.8332,-90.8320,10.0,6.29,63.0,,'11111222,11111222,99999999' 
WAVCIS,ioos:station:WAVCIS:CSI15:1,2011-12-01T15:00:00Z,28.8332,-90.8320,10.0,6.922,63.0,,'11111222,11111222,99999999' 
WAVCIS,ioos:station:WAVCIS:CSI15:1,2011-12-01T16:00:00Z,28.8332,-90.8320,10.0,6.255,74.0,,'11111222,11111222,99999999' 
WAVCIS,ioos:station:WAVCIS:CSI15:1,2011-12-01T17:00:00Z,28.8332,-90.8320,10.0,6.57,73.0,,'11111222,11111222,99999999' 
WAVCIS,ioos:station:WAVCIS:CSI15:1,2011-12-01T18:00:00Z,28.8332,-90.8320,10.0,6.35,64.0,,'11111222,11111222,99999999' 
WAVCIS,ioos:station:WAVCIS:CSI15:1,2011-12-01T19:00:00Z,28.8332,-90.8320,10.0,6.384,58.0,,'11111222,11111222,99999999' 
WAVCIS,ioos:station:WAVCIS:CSI15:1,2011-12-01T20:00:00Z,28.8332,-90.8320,10.0,7.06,58.0,,'11111222,11111222,99999999' 
WAVCIS,ioos:station:WAVCIS:CSI15:1,2011-12-01T21:00:00Z,28.8332,-90.8320,10.0,7.0,50.0,,'11111222,11111222,99999999' 
WAVCIS,ioos:station:WAVCIS:CSI15:1,2011-12-01T22:00:00Z,28.8332,-90.8320,10.0,6.771,57.0,,'11111222,11111222,99999999' 
WAVCIS,ioos:station:WAVCIS:CSI15:1,2011-12-01T23:00:00Z,28.8332,-90.8320,10.0,7.5,52.0,,'11111222,11111222,99999999' 
WAVCIS,ioos:station:WAVCIS:CSI15:1,2011-12-02T00:00:00Z,28.8332,-90.8320,10.0,8.18,55.0,,'11111222,11111222,99999999' 
WAVCIS,ioos:station:WAVCIS:CSI15:1,2011-12-02T01:00:00Z,28.8332,-90.8320,10.0,7.18,57.0,,'11111222,11111222,99999999' 
WAVCIS,ioos:station:WAVCIS:CSI15:1,2011-12-02T02:00:00Z,28.8332,-90.8320,10.0,7.05,60.0,,'11111222,11111222,99999999' 
WAVCIS,ioos:station:WAVCIS:CSI15:1,2011-12-02T03:00:00Z,28.8332,-90.8320,10.0,6.901,64.0,,'11111222,11111222,99999999' 
WAVCIS,ioos:station:WAVCIS:CSI15:1,2011-12-02T04:00:00Z,28.8332,-90.8320,10.0,8.79,60.0,,'11111222,11111222,99999999' 
WAVCIS,ioos:station:WAVCIS:CSI15:1,2011-12-02T05:00:00Z,28.8332,-90.8320,10.0,5.938,63.0,,'11111222,11111222,99999999' 
WAVCIS,ioos:station:WAVCIS:CSI15:1,2011-12-02T06:00:00Z,28.8332,-90.8320,10.0,5.334,70.0,,'11111222,11111222,99999999' 
WAVCIS,ioos:station:WAVCIS:CSI15:1,2011-12-02T07:00:00Z,28.8332,-90.8320,10.0,3.712,78.0,,'11111222,11111222,99999999' 
WAVCIS,ioos:station:WAVCIS:CSI15:1,2011-12-02T08:00:00Z,28.8332,-90.8320,10.0,4.607,58.0,,'11111222,11111222,99999999' 
WAVCIS,ioos:station:WAVCIS:CSI15:1,2011-12-02T09:00:00Z,28.8332,-90.8320,10.0,6.793,16.0,,'11111222,11111222,99999999' 
WAVCIS,ioos:station:WAVCIS:CSI15:1,2011-12-02T10:00:00Z,28.8332,-90.8320,10.0,7.49,21.0,,'11111222,11111222,99999999' 
WAVCIS,ioos:station:WAVCIS:CSI15:1,2011-12-02T11:00:00Z,28.8332,-90.8320,10.0,7.87,16.0,,'11111222,11111222,99999999' 
WAVCIS,ioos:station:WAVCIS:CSI15:1,2011-12-02T12:00:00Z,28.8332,-90.8320,10.0,8.18,13.0,,'11111222,11111222,99999999' 
WAVCIS,ioos:station:WAVCIS:CSI15:1,2011-12-02T13:00:00Z,28.8332,-90.8320,10.0,8.16,8.0,,'11111222,11111222,99999999' 
WAVCIS,ioos:station:WAVCIS:CSI15:1,2011-12-02T14:00:00Z,28.8332,-90.8320,10.0,8.54,14.0,,'11111222,11111222,99999999' 
WAVCIS,ioos:station:WAVCIS:CSI15:1,2011-12-02T15:00:00Z,28.8332,-90.8320,10.0,7.25,13.0,,'11111222,11111222,99999999' 
WAVCIS,ioos:station:WAVCIS:CSI15:1,2011-12-02T16:00:00Z,28.8332,-90.8320,10.0,7.29,19.0,,'11111222,11111222,99999999' 
WAVCIS,ioos:station:WAVCIS:CSI15:1,2011-12-02T17:00:00Z,28.8332,-90.8320,10.0,7.93,20.0,,'11111222,11111222,99999999' 
WAVCIS,ioos:station:WAVCIS:CSI15:1,2011-12-02T18:00:00Z,28.8332,-90.8320,10.0,6.957,21.0,,'11111222,11111222,99999999' 
WAVCIS,ioos:station:WAVCIS:CSI15:1,2011-12-02T19:00:00Z,28.8332,-90.8320,10.0,8.23,32.0,,'11111222,11111222,99999999' 
WAVCIS,ioos:station:WAVCIS:CSI15:1,2011-12-02T20:00:00Z,28.8332,-90.8320,10.0,7.92,28.0,,'11111222,11111222,99999999' 
WAVCIS,ioos:station:WAVCIS:CSI15:1,2011-12-02T21:00:00Z,28.8332,-90.8320,10.0,9.25,26.0,,'11111222,11111222,99999999' 
WAVCIS,ioos:station:WAVCIS:CSI15:1,2011-12-02T22:00:00Z,28.8332,-90.8320,10.0,9.87,29.0,,'11111222,11111222,99999999' 
WAVCIS,ioos:station:WAVCIS:CSI15:1,2011-12-02T23:00:00Z,28.8332,-90.8320,10.0,10.02,31.0,,'11111222,11111222,99999999' 
WAVCIS,ioos:station:WAVCIS:CSI15:1,2011-12-03T00:00:00Z,28.8332,-90.8320,10.0,9.75,32.0,,'11111222,11111222,99999999' 
WAVCIS,ioos:station:WAVCIS:CSI15:1,2011-12-03T01:00:00Z,28.8332,-90.8320,10.0,10.76,42.0,,'11111222,11111222,99999999' 
WAVCIS,ioos:station:WAVCIS:CSI15:1,2011-12-03T02:00:00Z,28.8332,-90.8320,10.0,11.09,48.0,,'11111222,11111222,99999999' 
WAVCIS,ioos:station:WAVCIS:CSI15:1,2011-12-03T03:00:00Z,28.8332,-90.8320,10.0,9.39,44.0,,'11111222,11111222,99999999' 
WAVCIS,ioos:station:WAVCIS:CSI15:1,2011-12-03T04:00:00Z,28.8332,-90.8320,10.0,7.89,27.0,,'11111222,11111222,99999999' 
WAVCIS,ioos:station:WAVCIS:CSI15:1,2011-12-03T05:00:00Z,28.8332,-90.8320,10.0,10.58,55.0,,'11111222,11111222,99999999' 
WAVCIS,ioos:station:WAVCIS:CSI15:1,2011-12-03T06:00:00Z,28.8332,-90.8320,10.0,11.17,87.0,,'11111222,11111222,99999999' 
WAVCIS,ioos:station:WAVCIS:CSI15:1,2011-12-03T07:00:00Z,28.8332,-90.8320,10.0,9.98,95.0,,'11111222,11111222,99999999' 
WAVCIS,ioos:station:WAVCIS:CSI15:1,2011-12-03T08:00:00Z,28.8332,-90.8320,10.0,12.36,96.0,,'11111222,11111222,99999999' 
WAVCIS,ioos:station:WAVCIS:CSI15:1,2011-12-03T09:00:00Z,28.8332,-90.8320,10.0,12.26,99.0,,'11111222,11111222,99999999' 
WAVCIS,ioos:station:WAVCIS:CSI15:1,2011-12-03T10:00:00Z,28.8332,-90.8320,10.0,12.06,99.0,,'11111222,11111222,99999999' 
WAVCIS,ioos:station:WAVCIS:CSI15:1,2011-12-03T11:00:00Z,28.8332,-90.8320,10.0,11.66,98.0,,'11111222,11111222,99999999' 
WAVCIS,ioos:station:WAVCIS:CSI15:1,2011-12-03T12:00:00Z,28.8332,-90.8320,10.0,11.05,99.0,,'11111222,11111222,99999999' 
WAVCIS,ioos:station:WAVCIS:CSI15:1,2011-12-03T13:00:00Z,28.8332,-90.8320,10.0,10.94,103.0,,'11111222,11111222,99999999' 
WAVCIS,ioos:station:WAVCIS:CSI15:1,2011-12-03T14:00:00Z,28.8332,-90.8320,10.0,9.72,100.0,,'11111222,11111222,99999999' 
WAVCIS,ioos:station:WAVCIS:CSI15:1,2011-12-03T15:00:00Z,28.8332,-90.8320,10.0,10.3,101.0,,'11111222,11111222,99999999' 
WAVCIS,ioos:station:WAVCIS:CSI15:1,2011-12-03T16:00:00Z,28.8332,-90.8320,10.0,12.03,92.0,,'11111222,11111222,99999999' 
WAVCIS,ioos:station:WAVCIS:CSI15:1,2011-12-03T17:00:00Z,28.8332,-90.8320,10.0,10.72,92.0,,'11111222,11111222,99999999' 
WAVCIS,ioos:station:WAVCIS:CSI15:1,2011-12-03T18:00:00Z,28.8332,-90.8320,10.0,7.5,85.0,,'11111222,11111222,99999999' 
WAVCIS,ioos:station:WAVCIS:CSI15:1,2011-12-03T19:00:00Z,28.8332,-90.8320,10.0,6.571,84.0,,'11111222,11111222,99999999' 
WAVCIS,ioos:station:WAVCIS:CSI15:1,2011-12-03T20:00:00Z,28.8332,-90.8320,10.0,8.15,97.0,,'11111222,11111222,99999999' 
WAVCIS,ioos:station:WAVCIS:CSI15:1,2011-12-03T21:00:00Z,28.8332,-90.8320,10.0,8.27,87.0,,'11111222,11111222,99999999' 
WAVCIS,ioos:station:WAVCIS:CSI15:1,2011-12-03T22:00:00Z,28.8332,-90.8320,10.0,9.67,94.0,,'11111222,11111222,99999999' 
WAVCIS,ioos:station:WAVCIS:CSI15:1,2011-12-03T23:00:00Z,28.8332,-90.8320,10.0,9.61,86.0,,'11111222,11111222,99999999' 
WAVCIS,ioos:station:WAVCIS:CSI15:1,2011-12-04T00:00:00Z,28.8332,-90.8320,10.0,8.73,85.0,,'11111222,11111222,99999999' 
WAVCIS,ioos:station:WAVCIS:CSI15:1,2011-12-04T01:00:00Z,28.8332,-90.8320,10.0,7.92,96.0,,'11111222,11111222,99999999' 
WAVCIS,ioos:station:WAVCIS:CSI15:1,2011-12-04T02:00:00Z,28.8332,-90.8320,10.0,9.59,106.0,,'11111222,11111222,99999999' 
WAVCIS,ioos:station:WAVCIS:CSI15:1,2011-12-04T03:00:00Z,28.8332,-90.8320,10.0,9.52,99.0,,'11111222,11111222,99999999' 
WAVCIS,ioos:station:WAVCIS:CSI15:1,2011-12-04T04:00:00Z,28.8332,-90.8320,10.0,11.36,99.0,,'11111222,11111222,99999999' 
WAVCIS,ioos:station:WAVCIS:CSI15:1,2011-12-04T05:00:00Z,28.8332,-90.8320,10.0,8.19,106.0,,'11111222,11111222,99999999' 
WAVCIS,ioos:station:WAVCIS:CSI15:1,2011-12-04T06:00:00Z,28.8332,-90.8320,10.0,10.23,120.0,,'11111222,11111222,99999999' 
WAVCIS,ioos:station:WAVCIS:CSI15:1,2011-12-04T07:00:00Z,28.8332,-90.8320,10.0,10.36,114.0,,'11111222,11111222,99999999' 
WAVCIS,ioos:station:WAVCIS:CSI15:1,2011-12-04T08:00:00Z,28.8332,-90.8320,10.0,9.9,114.0,,'11111222,11111222,99999999' 
WAVCIS,ioos:station:WAVCIS:CSI15:1,2011-12-04T09:00:00Z,28.8332,-90.8320,10.0,9.07,105.0,,'11111222,11111222,99999999' 
WAVCIS,ioos:station:WAVCIS:CSI15:1,2011-12-04T10:00:00Z,28.8332,-90.8320,10.0,9.93,102.0,,'11111222,11111222,99999999' 
WAVCIS,ioos:station:WAVCIS:CSI15:1,2011-12-04T11:00:00Z,28.8332,-90.8320,10.0,10.09,100.0,,'11111222,11111222,99999999' 
WAVCIS,ioos:station:WAVCIS:CSI15:1,2011-12-04T12:00:00Z,28.8332,-90.8320,10.0,9.31,102.0,,'11111222,11111222,99999999' 
WAVCIS,ioos:station:WAVCIS:CSI15:1,2011-12-04T13:00:00Z,28.8332,-90.8320,10.0,8.61,103.0,,'11111222,11111222,99999999' 
WAVCIS,ioos:station:WAVCIS:CSI15:1,2011-12-04T14:00:00Z,28.8332,-90.8320,10.0,7.78,108.0,,'11111222,11111222,99999999' 
WAVCIS,ioos:station:WAVCIS:CSI15:1,2011-12-04T15:00:00Z,28.8332,-90.8320,10.0,8.07,103.0,,'11111222,11111222,99999999' 
WAVCIS,ioos:station:WAVCIS:CSI15:1,2011-12-04T16:00:00Z,28.8332,-90.8320,10.0,8.57,112.0,,'11111222,11111222,99999999' 
WAVCIS,ioos:station:WAVCIS:CSI15:1,2011-12-04T17:00:00Z,28.8332,-90.8320,10.0,9.6,109.0,,'11111222,11111222,99999999' 
WAVCIS,ioos:station:WAVCIS:CSI15:1,2011-12-04T18:00:00Z,28.8332,-90.8320,10.0,7.07,109.0,,'11111222,11111222,99999999' 
WAVCIS,ioos:station:WAVCIS:CSI15:1,2011-12-04T19:00:00Z,28.8332,-90.8320,10.0,6.556,94.0,,'11111222,11111222,99999999' 
WAVCIS,ioos:station:WAVCIS:CSI15:1,2011-12-04T20:00:00Z,28.8332,-90.8320,10.0,7.6,87.0,,'11111222,11111222,99999999' 
WAVCIS,ioos:station:WAVCIS:CSI15:1,2011-12-04T21:00:00Z,28.8332,-90.8320,10.0,7.62,96.0,,'11111222,11111222,99999999' 
WAVCIS,ioos:station:WAVCIS:CSI15:1,2011-12-04T22:00:00Z,28.8332,-90.8320,10.0,6.749,97.0,,'11111222,11111222,99999999' 
WAVCIS,ioos:station:WAVCIS:CSI15:1,2011-12-04T23:00:00Z,28.8332,-90.8320,10.0,6.783,103.0,,'11111222,11111222,99999999' 
WAVCIS,ioos:station:WAVCIS:CSI15:1,2011-12-05T00:00:00Z,28.8332,-90.8320,10.0,6.473,104.0,,'11111222,11111222,99999999' 
WAVCIS,ioos:station:WAVCIS:CSI15:1,2011-12-05T01:00:00Z,28.8332,-90.8320,10.0,6.251,109.0,,'11111222,11111222,99999999' 
WAVCIS,ioos:station:WAVCIS:CSI15:1,2011-12-05T02:00:00Z,28.8332,-90.8320,10.0,6.591,113.0,,'11111222,11111222,99999999' 
WAVCIS,ioos:station:WAVCIS:CSI15:1,2011-12-05T03:00:00Z,28.8332,-90.8320,10.0,8.48,112.0,,'11111222,11111222,99999999' 
WAVCIS,ioos:station:WAVCIS:CSI15:1,2011-12-05T04:00:00Z,28.8332,-90.8320,10.0,8.37,118.0,,'11111222,11111222,99999999' 
WAVCIS,ioos:station:WAVCIS:CSI15:1,2011-12-05T05:00:00Z,28.8332,-90.8320,10.0,7.57,113.0,,'11111222,11111222,99999999' 
WAVCIS,ioos:station:WAVCIS:CSI15:1,2011-12-05T06:00:00Z,28.8332,-90.8320,10.0,7.35,112.0,,'11111222,11111222,99999999' 
WAVCIS,ioos:station:WAVCIS:CSI15:1,2011-12-05T07:00:00Z,28.8332,-90.8320,10.0,7.27,100.0,,'11111222,11111222,99999999' 
WAVCIS,ioos:station:WAVCIS:CSI15:1,2011-12-05T08:00:00Z,28.8332,-90.8320,10.0,8.43,124.0,,'11111222,11111222,99999999' 
WAVCIS,ioos:station:WAVCIS:CSI15:1,2011-12-05T09:00:00Z,28.8332,-90.8320,10.0,13.4,126.0,,'11111222,11111222,99999999' 
WAVCIS,ioos:station:WAVCIS:CSI15:1,2011-12-05T10:00:00Z,28.8332,-90.8320,10.0,10.25,133.0,,'11111222,11111222,99999999' 
WAVCIS,ioos:station:WAVCIS:CSI15:1,2011-12-05T11:00:00Z,28.8332,-90.8320,10.0,11.72,128.0,,'11111222,11111222,99999999' 
WAVCIS,ioos:station:WAVCIS:CSI15:1,2011-12-05T12:00:00Z,28.8332,-90.8320,10.0,7.6,123.0,,'11111222,11111222,99999999' 
WAVCIS,ioos:station:WAVCIS:CSI15:1,2011-12-05T13:00:00Z,28.8332,-90.8320,10.0,7.76,132.0,,'11111222,11111222,99999999' 
WAVCIS,ioos:station:WAVCIS:CSI15:1,2011-12-05T14:00:00Z,28.8332,-90.8320,10.0,7.07,137.0,,'11111222,11111222,99999999' 
WAVCIS,ioos:station:WAVCIS:CSI15:1,2011-12-05T15:00:00Z,28.8332,-90.8320,10.0,7.37,149.0,,'11111222,11111222,99999999' 
WAVCIS,ioos:station:WAVCIS:CSI15:1,2011-12-05T16:00:00Z,28.8332,-90.8320,10.0,9.4,173.0,,'11111222,11111222,99999999' 
WAVCIS,ioos:station:WAVCIS:CSI15:1,2011-12-05T17:00:00Z,28.8332,-90.8320,10.0,8.56,168.0,,'11111222,11111222,99999999' 
WAVCIS,ioos:station:WAVCIS:CSI15:1,2011-12-05T18:00:00Z,28.8332,-90.8320,10.0,7.29,159.0,,'11111222,11111222,99999999' 
WAVCIS,ioos:station:WAVCIS:CSI15:1,2011-12-05T19:00:00Z,28.8332,-90.8320,10.0,7.41,165.0,,'11111222,11111222,99999999' 
WAVCIS,ioos:station:WAVCIS:CSI15:1,2011-12-05T20:00:00Z,28.8332,-90.8320,10.0,6.854,185.0,,'11111222,11111222,99999999' 
WAVCIS,ioos:station:WAVCIS:CSI15:1,2011-12-05T21:00:00Z,28.8332,-90.8320,10.0,5.458,179.0,,'11111222,11111222,99999999' 
WAVCIS,ioos:station:WAVCIS:CSI15:1,2011-12-05T22:00:00Z,28.8332,-90.8320,10.0,6.297,172.0,,'11111222,11111222,99999999' 
WAVCIS,ioos:station:WAVCIS:CSI15:1,2011-12-05T23:00:00Z,28.8332,-90.8320,10.0,6.287,168.0,,'11111222,11111222,99999999' 
WAVCIS,ioos:station:WAVCIS:CSI15:1,2011-12-06T00:00:00Z,28.8332,-90.8320,10.0,5.824,166.0,,'11111222,11111222,99999999' 
WAVCIS,ioos:station:WAVCIS:CSI15:1,2011-12-06T01:00:00Z,28.8332,-90.8320,10.0,4.898,273.0,,'11111222,11111222,99999999' 
WAVCIS,ioos:station:WAVCIS:CSI15:1,2011-12-06T02:00:00Z,28.8332,-90.8320,10.0,1.317,273.0,,'11111222,11111222,99999999' 
WAVCIS,ioos:station:WAVCIS:CSI15:1,2011-12-06T03:00:00Z,28.8332,-90.8320,10.0,1.025,245.0,,'11111222,11111222,99999999' 
WAVCIS,ioos:station:WAVCIS:CSI15:1,2011-12-06T04:00:00Z,28.8332,-90.8320,10.0,4.56,258.0,,'11111222,11111222,99999999' 
WAVCIS,ioos:station:WAVCIS:CSI15:1,2011-12-06T05:00:00Z,28.8332,-90.8320,10.0,6.073,260.0,,'11111222,11111222,99999999' 
WAVCIS,ioos:station:WAVCIS:CSI15:1,2011-12-06T06:00:00Z,28.8332,-90.8320,10.0,5.892,240.0,,'11111222,11111222,99999999' 
WAVCIS,ioos:station:WAVCIS:CSI15:1,2011-12-06T07:00:00Z,28.8332,-90.8320,10.0,6.573,262.0,,'11111222,11111222,99999999' 
WAVCIS,ioos:station:WAVCIS:CSI15:1,2011-12-06T08:00:00Z,28.8332,-90.8320,10.0,7.75,266.0,,'11111222,11111222,99999999' 
WAVCIS,ioos:station:WAVCIS:CSI15:1,2011-12-06T09:00:00Z,28.8332,-90.8320,10.0,8.83,279.0,,'11111222,11111222,99999999' 
WAVCIS,ioos:station:WAVCIS:CSI15:1,2011-12-06T10:00:00Z,28.8332,-90.8320,10.0,8.58,293.0,,'11111222,11111222,99999999' 
WAVCIS,ioos:station:WAVCIS:CSI15:1,2011-12-06T11:00:00Z,28.8332,-90.8320,10.0,8.94,302.0,,'11111222,11111222,99999999' 
WAVCIS,ioos:station:WAVCIS:CSI15:1,2011-12-06T12:00:00Z,28.8332,-90.8320,10.0,8.81,311.0,,'11111222,11111222,99999999' 
WAVCIS,ioos:station:WAVCIS:CSI15:1,2011-12-06T13:00:00Z,28.8332,-90.8320,10.0,7.2,309.0,,'11111222,11111222,99999999' 
WAVCIS,ioos:station:WAVCIS:CSI15:1,2011-12-06T14:00:00Z,28.8332,-90.8320,10.0,7.47,337.0,,'11111222,11111222,99999999' 
WAVCIS,ioos:station:WAVCIS:CSI15:1,2011-12-06T15:00:00Z,28.8332,-90.8320,10.0,4.863,343.0,,'11111222,11111222,99999999' 
WAVCIS,ioos:station:WAVCIS:CSI15:1,2011-12-06T16:00:00Z,28.8332,-90.8320,10.0,4.668,347.0,,'11111222,11111222,99999999' 
WAVCIS,ioos:station:WAVCIS:CSI15:1,2011-12-06T17:00:00Z,28.8332,-90.8320,10.0,4.212,349.0,,'11111222,11111222,99999999' 
WAVCIS,ioos:station:WAVCIS:CSI15:1,2011-12-06T18:00:00Z,28.8332,-90.8320,10.0,5.595,303.0,,'11111222,11111222,99999999' 
WAVCIS,ioos:station:WAVCIS:CSI15:1,2011-12-06T19:00:00Z,28.8332,-90.8320,10.0,7.52,308.0,,'11111222,11111222,99999999' 
WAVCIS,ioos:station:WAVCIS:CSI15:1,2011-12-06T20:00:00Z,28.8332,-90.8320,10.0,6.33,315.0,,'11111222,11111222,99999999' 
WAVCIS,ioos:station:WAVCIS:CSI15:1,2011-12-06T21:00:00Z,28.8332,-90.8320,10.0,6.498,318.0,,'11111222,11111222,99999999' 
WAVCIS,ioos:station:WAVCIS:CSI15:1,2011-12-06T22:00:00Z,28.8332,-90.8320,10.0,6.454,326.0,,'11111222,11111222,99999999' 
WAVCIS,ioos:station:WAVCIS:CSI15:1,2011-12-06T23:00:00Z,28.8332,-90.8320,10.0,6.58,315.0,,'11111222,11111222,99999999' 
WAVCIS,ioos:station:WAVCIS:CSI15:1,2011-12-07T00:00:00Z,28.8332,-90.8320,10.0,6.974,319.0,,'11111222,11111222,99999999' 
WAVCIS,ioos:station:WAVCIS:CSI15:1,2011-12-07T01:00:00Z,28.8332,-90.8320,10.0,7.47,312.0,,'11111222,11111222,99999999' 
WAVCIS,ioos:station:WAVCIS:CSI15:1,2011-12-07T02:00:00Z,28.8332,-90.8320,10.0,7.22,308.0,,'11111222,11111222,99999999' 
WAVCIS,ioos:station:WAVCIS:CSI15:1,2011-12-07T03:00:00Z,28.8332,-90.8320,10.0,8.55,299.0,,'11111222,11111222,99999999' 
WAVCIS,ioos:station:WAVCIS:CSI15:1,2011-12-07T04:00:00Z,28.8332,-90.8320,10.0,9.87,304.0,,'11111222,11111222,99999999' 
WAVCIS,ioos:station:WAVCIS:CSI15:1,2011-12-07T05:00:00Z,28.8332,-90.8320,10.0,9.77,292.0,,'11111222,11111222,99999999' 
WAVCIS,ioos:station:WAVCIS:CSI15:1,2011-12-07T06:00:00Z,28.8332,-90.8320,10.0,10.02,295.0,,'11111222,11111222,99999999' 
WAVCIS,ioos:station:WAVCIS:CSI15:1,2011-12-07T07:00:00Z,28.8332,-90.8320,10.0,10.92,290.0,,'11111222,11111222,99999999' 
WAVCIS,ioos:station:WAVCIS:CSI15:1,2011-12-07T08:00:00Z,28.8332,-90.8320,10.0,13.13,278.0,,'11111222,11111222,99999999' 
WAVCIS,ioos:station:WAVCIS:CSI15:1,2011-12-07T09:00:00Z,28.8332,-90.8320,10.0,12.31,275.0,,'11111222,11111222,99999999' 
WAVCIS,ioos:station:WAVCIS:CSI15:1,2011-12-07T10:00:00Z,28.8332,-90.8320,10.0,12.17,276.0,,'11111222,11111222,99999999' 
WAVCIS,ioos:station:WAVCIS:CSI15:1,2011-12-07T11:00:00Z,28.8332,-90.8320,10.0,13.72,270.0,,'11111222,11111222,99999999' 
WAVCIS,ioos:station:WAVCIS:CSI15:1,2011-12-07T12:00:00Z,28.8332,-90.8320,10.0,13.74,275.0,,'11111222,11111222,99999999' 
WAVCIS,ioos:station:WAVCIS:CSI15:1,2011-12-07T13:00:00Z,28.8332,-90.8320,10.0,13.13,285.0,,'11111222,11111222,99999999' 
WAVCIS,ioos:station:WAVCIS:CSI15:1,2011-12-07T14:00:00Z,28.8332,-90.8320,10.0,14.19,294.0,,'11111222,11111222,99999999' 
WAVCIS,ioos:station:WAVCIS:CSI15:1,2011-12-07T15:00:00Z,28.8332,-90.8320,10.0,12.57,301.0,,'11111222,11111222,99999999' 
WAVCIS,ioos:station:WAVCIS:CSI15:1,2011-12-07T16:00:00Z,28.8332,-90.8320,10.0,10.59,295.0,,'11111222,11111222,99999999' 
WAVCIS,ioos:station:WAVCIS:CSI15:1,2011-12-07T17:00:00Z,28.8332,-90.8320,10.0,9.99,300.0,,'11111222,11111222,99999999' 
WAVCIS,ioos:station:WAVCIS:CSI15:1,2011-12-07T18:00:00Z,28.8332,-90.8320,10.0,9.43,300.0,,'11111222,11111222,99999999' 
WAVCIS,ioos:station:WAVCIS:CSI15:1,2011-12-07T19:00:00Z,28.8332,-90.8320,10.0,9.25,296.0,,'11111222,11111222,99999999' 
WAVCIS,ioos:station:WAVCIS:CSI15:1,2011-12-07T20:00:00Z,28.8332,-90.8320,10.0,8.99,298.0,,'11111222,11111222,99999999' 
WAVCIS,ioos:station:WAVCIS:CSI15:1,2011-12-07T21:00:00Z,28.8332,-90.8320,10.0,8.65,293.0,,'11111222,11111222,99999999' 
WAVCIS,ioos:station:WAVCIS:CSI15:1,2011-12-07T22:00:00Z,28.8332,-90.8320,10.0,9.26,302.0,,'11111222,11111222,99999999' 
WAVCIS,ioos:station:WAVCIS:CSI15:1,2011-12-07T23:00:00Z,28.8332,-90.8320,10.0,9.54,304.0,,'11111222,11111222,99999999' 
WAVCIS,ioos:station:WAVCIS:CSI15:1,2011-12-08T00:00:00Z,28.8332,-90.8320,10.0,9.3,321.0,,'11111222,11111222,99999999' 
WAVCIS,ioos:station:WAVCIS:CSI15:1,2011-12-08T01:00:00Z,28.8332,-90.8320,10.0,9.73,333.0,,'11111222,11111222,99999999' 
WAVCIS,ioos:station:WAVCIS:CSI15:1,2011-12-08T02:00:00Z,28.8332,-90.8320,10.0,10.44,335.0,,'11111222,11111222,99999999' 
WAVCIS,ioos:station:WAVCIS:CSI15:1,2011-12-08T03:00:00Z,28.8332,-90.8320,10.0,11.22,341.0,,'11111222,11111222,99999999' 
WAVCIS,ioos:station:WAVCIS:CSI15:1,2011-12-08T04:00:00Z,28.8332,-90.8320,10.0,10.3,348.0,,'11111222,11111222,99999999' 
WAVCIS,ioos:station:WAVCIS:CSI15:1,2011-12-08T05:00:00Z,28.8332,-90.8320,10.0,9.08,357.0,,'11111222,11111222,99999999' 
WAVCIS,ioos:station:WAVCIS:CSI15:1,2011-12-08T06:00:00Z,28.8332,-90.8320,10.0,8.55,3.0,,'11111222,11111222,99999999' 
WAVCIS,ioos:station:WAVCIS:CSI15:1,2011-12-08T07:00:00Z,28.8332,-90.8320,10.0,8.8,0.0,,'11111222,11111222,99999999' 
WAVCIS,ioos:station:WAVCIS:CSI15:1,2011-12-08T08:00:00Z,28.8332,-90.8320,10.0,7.44,16.0,,'11111222,11111222,99999999' 
WAVCIS,ioos:station:WAVCIS:CSI15:1,2011-12-08T09:00:00Z,28.8332,-90.8320,10.0,7.54,22.0,,'11111222,11111222,99999999' 
WAVCIS,ioos:station:WAVCIS:CSI15:1,2011-12-08T10:00:00Z,28.8332,-90.8320,10.0,5.96,30.0,,'11111222,11111222,99999999' 
WAVCIS,ioos:station:WAVCIS:CSI15:1,2011-12-08T11:00:00Z,28.8332,-90.8320,10.0,5.457,36.0,,'11111222,11111222,99999999' 
WAVCIS,ioos:station:WAVCIS:CSI15:1,2011-12-08T12:00:00Z,28.8332,-90.8320,10.0,5.033,30.0,,'11111222,11111222,99999999' 
WAVCIS,ioos:station:WAVCIS:CSI15:1,2011-12-08T13:00:00Z,28.8332,-90.8320,10.0,6.83,45.0,,'11111222,11111222,99999999' 
WAVCIS,ioos:station:WAVCIS:CSI15:1,2011-12-08T14:00:00Z,28.8332,-90.8320,10.0,5.726,26.0,,'11111222,11111222,99999999' 
WAVCIS,ioos:station:WAVCIS:CSI15:1,2011-12-08T15:00:00Z,28.8332,-90.8320,10.0,6.522,32.0,,'11111222,11111222,99999999' 
WAVCIS,ioos:station:WAVCIS:CSI15:1,2011-12-08T16:00:00Z,28.8332,-90.8320,10.0,5.687,32.0,,'11111222,11111222,99999999' 
WAVCIS,ioos:station:WAVCIS:CSI15:1,2011-12-08T17:00:00Z,28.8332,-90.8320,10.0,5.912,8.0,,'11111222,11111222,99999999' 
WAVCIS,ioos:station:WAVCIS:CSI15:1,2011-12-08T18:00:00Z,28.8332,-90.8320,10.0,6.481,10.0,,'11111222,11111222,99999999' 
WAVCIS,ioos:station:WAVCIS:CSI15:1,2011-12-08T19:00:00Z,28.8332,-90.8320,10.0,6.201,11.0,,'11111222,11111222,99999999' 
WAVCIS,ioos:station:WAVCIS:CSI15:1,2011-12-08T20:00:00Z,28.8332,-90.8320,10.0,5.243,10.0,,'11111222,11111222,99999999' 
WAVCIS,ioos:station:WAVCIS:CSI15:1,2011-12-08T21:00:00Z,28.8332,-90.8320,10.0,5.093,7.0,,'11111222,11111222,99999999' 
WAVCIS,ioos:station:WAVCIS:CSI15:1,2011-12-08T22:00:00Z,28.8332,-90.8320,10.0,4.984,7.0,,'11111222,11111222,99999999' 
WAVCIS,ioos:station:WAVCIS:CSI15:1,2011-12-08T23:00:00Z,28.8332,-90.8320,10.0,4.385,29.0,,'11111222,11111222,99999999' 
WAVCIS,ioos:station:WAVCIS:CSI15:1,2011-12-09T00:00:00Z,28.8332,-90.8320,10.0,4.524,20.0,,'11111222,11111222,99999999' 
WAVCIS,ioos:station:WAVCIS:CSI15:1,2011-12-09T01:00:00Z,28.8332,-90.8320,10.0,4.592,17.0,,'11111222,11111222,99999999' 
WAVCIS,ioos:station:WAVCIS:CSI15:1,2011-12-09T02:00:00Z,28.8332,-90.8320,10.0,4.892,21.0,,'11111222,11111222,99999999' 
WAVCIS,ioos:station:WAVCIS:CSI15:1,2011-12-09T03:00:00Z,28.8332,-90.8320,10.0,4.262,16.0,,'11111222,11111222,99999999' 
WAVCIS,ioos:station:WAVCIS:CSI15:1,2011-12-09T04:00:00Z,28.8332,-90.8320,10.0,5.036,13.0,,'11111222,11111222,99999999' 
WAVCIS,ioos:station:WAVCIS:CSI15:1,2011-12-09T05:00:00Z,28.8332,-90.8320,10.0,5.667,3.0,,'11111222,11111222,99999999' 
WAVCIS,ioos:station:WAVCIS:CSI15:1,2011-12-09T06:00:00Z,28.8332,-90.8320,10.0,5.972,8.0,,'11111222,11111222,99999999' 